STARLINK-1731 (46676 NORAD) Tracking and Keplerian Element Data

This shows tracking and keplerian element data for the satellite.

Feedback or suggestion? Click here.




ElementValue
Catalog46676
NameSTARLINK-1731
Epoch Orbit729
Epoch Day335.83336806
Epoch Year2020
RAAN256.2768
Inclination53.0555
Eccentricity0.0001007
Argument of Perigee80.0718
Mean Anonmoly33.4768
Mean Motion15.62764531
Decay Rate-0.00055079
L11 46676U 20073G 20335.83336806 -.00055079 00000-0 -59953-3 0 9993
L22 46676 53.0555 256.2768 0001007 80.0718 33.4768 15.62764531 7291

Live tracking and technical data element details for STARLINK-1731 (NORAD 46676). STARLINK-1731 can be tracked NOW for your location showing map with azimuth and elevation plus other details from your city location.

Track the satellite on the map from your city or location and see movement details for azimuth, elevation, latitude, longitude, range, height, and movement on the map or in text.







IsCatalogInMostPopularTable: catalog: 46676, numindb: 6
Update: records affected: 1



GetName: 46676 STARLINK-1731

Hit Count: updated at: Tue, 01 Dec 2020 20:43:23 GMT